Вернуться в каталог

QIANFAN-227

АктивенСвязьPO
NORAD 69856·PAYLOAD·🇨🇳 China

Запущен Jul 5, 2026 с Wenchang Space Launch Site

Loading…

Ближайшие Пролёты (ближайшие 24 часа)

TLE

СвежийSource: Space-Track

Эпоха: Sep 14, 2026, 21:03 UTC

1 69856U 26155J   26257.87755751 -.01843787  00000-0 -31393+1 0  9999
2 69856  89.0073  54.2926 0038545  27.0925 333.2226 13.49074381  9966

Отслеживайте QIANFAN-227 в реальном времени с AllMySat

Download on the App Store